Volver al catálogo

IRIDIUM 33 DEB

ActivoPO
NORAD 35628·DEBRIS·🇺🇸 United States

Lanzado Sep 14, 1997 desde Baikonur Cosmodrome

Loading…

Próximos Pases (próximas 24 horas)

TLE

ActualizadoSource: Space-Track

Época: Sep 13, 2026, 16:55 UTC

1 35628U 97051RA  26256.70508696  .00004675  00000-0  75314-3 0  9993
2 35628  86.3513 245.9820 0014122  99.2062 261.0752 14.71243626904855

Sigue IRIDIUM 33 DEB en tiempo real con AllMySat

Download on the App Store